{"data":{"norad_id":57884,"epoch":"2026-09-20T16:35:00.254688Z","epoch_age_seconds":118051,"freshness":"FRESH","line1":"1 57884U 23144W   26263.69097517 -.00001062  00000+0 -29109-4 0  9994","line2":"2 57884  42.9999 263.6461 0000980 269.0218  91.0521 15.27563209167461","mean_motion":15.27563209,"eccentricity":9.8e-5,"inclination_deg":42.9999,"raan_deg":263.6461,"arg_perigee_deg":269.0218,"mean_anomaly_deg":91.0521,"bstar":-2.9109e-5,"rev_number":16746,"period_min":94.267784895309,"perigee_km":482.42697363,"apogee_km":483.77177595946,"semimajor_km":6861.2363747947,"source":"CELESTRAK","updated_at":"2026-09-21T09:00:33.719791Z"}}